Retour au catalogue

STARLINK-5355

ActifCommunicationsVLEO
NORAD 57139·PAYLOAD·🇺🇸 United States

Lancé Jun 23, 2023 depuis Cape Canaveral Space Force Station

Loading…

Prochains Passages (prochaines 24 heures)

TLE

FraisSource: CelesTrak SupGP

Époque: Sep 15, 2026, 02:39 UTC

1 57139C 23090AQ  26258.11090278 -.00010638  00000+0 -38525-3 0  2583
2 57139  43.0021 273.2855 0001146 285.4571 177.4079 15.27588146    16

Suivez STARLINK-5355 en temps réel avec AllMySat

Download on the App Store